Theta_e
302 301 301 303 306 309 312 314 313 311 310 306 309 311 313 312 313 310 308 306 307 310 316 316 324 324 321 318 318 318 322 319 320 316 315 314 315 313 314 322 325 325 323 327 334
300 299 300 302 306 307 312 314 312 312 311 303 308 311 313 313 314 312 309 309 307 313 314 317 321 322 319 316 318 321 323 319 313 314 314 313 313 312 314 317 320 327 329 332 333
300 297 297 299 304 306 310 313 312 311 309 303 309 311 314 316 315 314 309 308 307 315 314 318 319 321 315 315 316 315 324 316 314 314 313 312 313 312 313 315 312 315 324 331 333
299 297 295 298 302 307 309 311 312 308 304 307 310 311 314 314 318 311 311 309 313 314 314 317 316 317 315 317 315 316 315 316 315 314 312 312 312 312 311 311 311 313 321 327 330
298 296 295 300 302 307 307 311 309 309 309 309 309 311 311 310 309 310 312 309 315 314 315 316 316 316 317 315 316 315 315 315 315 314 312 312 312 312 311 311 312 313 317 321 324
298 296 295 299 301 302 306 310 310 311 308 308 310 311 310 310 309 310 309 309 314 313 314 314 315 315 315 316 318 316 315 315 316 312 312 313 311 312 310 311 312 313 313 313 314
298 297 295 299 301 302 305 309 311 310 308 309 310 311 307 309 308 307 307 308 313 313 313 313 314 314 314 316 316 316 318 318 316 314 312 314 315 313 309 311 312 312 312 312 313
298 297 295 298 301 301 304 308 310 311 309 308 308 309 308 305 309 305 306 308 311 315 313 313 314 314 315 316 316 317 318 319 318 315 312 313 317 311 309 311 312 312 311 310 313
297 297 294 297 301 301 303 309 310 311 311 310 309 307 306 304 306 307 309 309 310 310 313 313 313 314 315 317 318 316 321 320 320 316 313 314 318 311 309 311 312 311 310 309 310
296 295 295 297 301 301 303 308 311 311 312 311 311 308 305 305 305 309 310 310 313 312 312 313 313 315 316 317 323 322 321 320 321 319 316 315 316 311 309 311 311 310 309 308 308
296 296 296 297 301 301 303 308 311 311 312 311 312 310 308 306 305 310 308 311 313 313 313 312 315 316 316 316 315 317 317 321 318 315 316 318 317 312 309 311 311 310 309 308 308
295 295 296 297 300 302 303 308 307 308 310 310 310 310 308 308 309 310 308 310 313 314 312 314 315 314 314 315 315 316 317 318 318 315 313 314 316 312 309 310 311 310 309 308 307
295 295 295 298 299 301 305 307 308 309 310 310 311 311 309 308 309 310 308 310 311 312 313 314 314 313 313 314 315 315 316 318 319 317 312 314 317 313 310 308 308 309 309 307 307
296 295 296 296 298 300 304 305 307 308 311 311 311 312 309 308 308 309 308 310 311 312 313 313 311 313 313 314 314 315 314 316 315 317 320 315 325 317 313 309 308 307 307 306 306
296 296 296 296 298 299 302 305 305 308 314 310 311 311 309 307 308 309 309 309 311 311 312 312 312 313 314 314 313 315 313 315 317 318 317 315 319 320 312 312 310 308 307 306 304
295 296 296 296 297 298 303 304 305 310 310 311 309 310 310 308 309 309 310 308 308 310 310 312 308 311 313 312 312 312 314 314 316 317 322 319 318 321 315 314 313 309 307 305 303
295 296 296 296 297 298 302 305 308 309 305 309 310 309 310 310 310 309 310 309 310 312 313 311 311 309 309 312 311 313 313 319 320 321 319 314 318 319 314 311 311 310 307 304 302
296 297 297 298 298 298 302 305 308 304 306 308 309 310 310 309 309 309 310 311 309 309 311 314 315 311 310 312 313 312 313 316 318 318 317 311 316 317 306 304 304 307 306 302 300
294 295 296 296 297 298 301 307 308 303 306 309 310 312 311 309 309 310 309 310 309 307 311 313 315 308 309 310 313 314 315 313 315 310 316 315 313 311 303 302 304 304 301 300 297
294 294 294 295 296 298 302 304 304 304 307 309 310 311 312 310 309 309 310 309 309 308 306 310 313 309 309 309 309 314 314 315 317 318 317 316 315 316 309 306 302 301 300 298 296
293 294 295 295 298 298 302 301 301 302 303 309 309 312 310 310 309 309 310 308 309 308 307 308 310 309 309 311 314 314 315 315 315 315 317 318 316 311 310 307 303 301 300 298 295
293 295 295 296 297 295 300 298 300 301 303 307 309 309 310 309 309 309 310 308 307 307 309 307 310 312 312 308 307 313 313 315 316 316 315 315 315 304 304 303 303 301 299 296 295
292 292 295 296 296 296 293 295 298 301 302 304 307 309 308 309 311 310 308 307 305 307 309 308 312 314 311 310 306 310 312 314 315 312 317 317 317 302 302 302 301 300 297 295 294
291 293 294 294 292 294 295 295 298 299 301 301 303 304 309 309 309 310 309 307 306 307 308 307 310 311 313 310 312 311 311 312 315 318 317 317 316 308 304 303 300 299 297 295 293
291 292 290 294 292 294 293 293 296 298 298 300 302 304 307 310 310 310 308 307 306 306 309 309 310 310 310 309 309 310 312 312 314 316 317 316 315 314 309 304 301 299 296 294 293
291 290 288 288 291 292 293 294 295 298 299 298 301 303 303 304 307 308 308 308 309 307 309 309 311 309 308 309 308 310 310 311 312 314 315 314 313 306 304 304 300 298 296 295 293
291 290 291 291 291 292 293 294 293 295 297 297 300 301 301 302 301 301 301 301 301 306 309 309 311 309 312 310 308 309 309 310 311 311 313 314 313 302 302 301 301 298 296 296 295
Wind_Speed
3 5 2 7 14 3 5 10 10 3 4 7 15 13 14 19 16 12 9 9 7 11 8 7 13 18 16 8 5 4 3 4 8 8 5 9 3 5 6 10 10 7 4 12 16
3 2 3 3 12 5 2 6 15 7 2 3 11 13 14 19 15 11 7 7 8 10 8 9 14 17 7 4 4 2 3 6 4 2 2 5 2 4 2 7 12 11 14 17 15
4 5 5 5 16 10 4 3 11 4 4 7 13 12 16 17 11 7 9 9 10 13 8 12 15 12 6 5 3 4 2 9 4 1 4 2 6 5 2 8 7 3 5 11 15
4 7 5 5 10 10 7 4 12 3 2 11 13 15 16 18 9 9 13 12 14 14 10 16 9 5 5 4 2 4 7 10 6 8 6 4 4 7 13 4 3 3 5 9 11
6 7 6 5 3 12 2 10 14 8 9 11 13 15 17 8 5 11 17 15 18 15 12 15 7 6 7 7 4 4 5 5 5 9 18 13 13 8 10 6 5 6 5 6 7
6 8 5 4 3 9 2 15 11 10 9 10 15 16 12 7 5 10 18 17 20 18 17 12 4 8 11 6 3 5 8 4 2 8 6 7 4 2 6 4 6 6 6 5 4
5 7 6 3 2 3 6 9 13 14 13 14 13 14 10 8 4 10 20 19 19 19 19 10 7 2 10 10 8 7 4 1 1 1 3 9 2 3 3 1 6 8 7 5 5
6 7 5 4 4 1 6 5 15 14 15 14 11 12 5 6 6 11 21 19 18 19 15 8 1 7 5 14 5 4 1 8 3 3 4 7 7 3 0 3 5 7 7 7 7
5 6 5 4 4 5 5 11 17 13 15 15 9 7 5 9 7 10 16 18 16 16 12 7 6 5 8 7 5 1 4 9 5 4 2 3 7 5 3 4 5 4 6 7 7
6 6 5 3 4 5 6 14 13 14 14 13 5 3 5 8 10 10 14 18 12 16 13 4 3 5 7 8 5 9 6 7 10 11 9 9 8 6 5 7 7 4 6 6 7
4 5 5 5 6 7 6 9 15 7 9 2 6 3 7 11 13 10 17 17 15 11 8 5 7 9 11 9 2 5 5 7 5 3 7 15 12 9 8 8 9 9 7 7 7
4 4 3 5 6 8 9 4 8 5 6 6 7 5 8 12 6 13 20 8 12 11 9 5 14 9 9 9 5 7 3 5 6 2 2 5 12 9 11 10 11 11 10 10 8
5 3 4 5 6 9 11 9 10 9 4 4 4 3 8 8 4 15 21 10 13 11 15 12 1 13 9 9 9 6 10 9 4 9 1 2 8 8 9 11 12 12 12 12 12
6 3 5 4 5 6 8 5 6 6 3 6 6 6 8 6 2 16 20 8 5 15 12 10 4 12 9 13 13 10 7 11 8 10 4 8 4 8 14 14 17 18 19 17 16
2 4 5 4 3 4 7 8 5 2 5 9 6 9 12 7 10 13 15 4 11 10 8 8 12 12 12 13 12 6 6 13 15 9 4 5 5 5 7 14 17 24 23 20 18
1 2 4 4 2 2 9 12 12 2 3 3 1 8 10 3 5 12 10 4 7 5 6 5 1 7 9 8 14 6 5 5 3 6 7 14 8 8 8 11 19 26 26 23 21
2 2 2 4 3 1 10 10 4 3 1 4 3 6 14 5 3 11 15 8 10 11 14 7 4 2 3 8 5 11 10 3 4 5 6 1 11 13 6 8 10 25 29 26 22
3 4 4 3 3 4 10 2 3 2 4 3 3 11 7 9 5 9 14 15 12 7 12 14 10 11 8 11 9 19 17 6 5 4 3 3 7 5 1 1 4 16 25 24 22
2 2 4 1 4 5 6 5 3 2 4 9 4 6 5 7 5 12 18 18 14 10 10 14 15 2 6 4 13 11 13 10 1 0 3 5 4 6 4 2 8 17 22 23 22
3 3 3 4 7 8 2 1 2 2 6 8 9 7 8 17 8 14 17 12 13 12 3 5 8 3 3 3 1 6 13 8 5 4 6 6 6 9 7 13 11 17 24 23 20
4 3 4 8 11 3 2 3 3 4 4 4 5 6 5 10 14 12 9 6 16 9 7 4 3 3 5 13 16 7 7 7 4 9 3 3 4 1 2 10 18 21 23 23 21
3 2 6 13 2 1 3 4 2 2 3 2 1 5 6 9 13 14 15 8 12 18 12 5 2 5 13 1 5 17 20 20 10 6 6 9 9 4 2 3 15 21 23 23 23
3 4 6 10 2 3 2 3 2 4 1 3 2 3 6 6 5 15 9 8 8 15 13 9 5 4 2 5 3 8 12 16 14 2 13 9 6 2 2 6 14 21 23 23 23
3 2 3 6 2 4 5 3 3 5 4 5 3 3 6 8 12 3 9 5 10 13 15 10 9 15 16 7 8 10 14 17 18 12 14 22 19 7 6 8 14 20 24 25 26
6 3 5 3 5 5 3 3 5 5 6 9 5 6 2 4 5 9 6 2 2 5 7 5 14 18 12 7 5 8 16 20 23 31 18 21 24 22 13 15 21 23 26 28 28
6 6 4 5 7 9 8 7 8 4 7 6 7 11 8 5 2 3 2 6 7 8 7 4 11 5 13 13 4 5 11 21 28 27 30 23 25 2 3 11 20 26 30 31 32
15 7 3 9 8 6 5 6 8 7 9 7 10 6 9 10 12 11 9 15 10 7 15 8 7 7 17 11 5 8 27 21 20 23 24 25 28 7 8 16 26 30 35 42 43
Wind_Direction
146 291 303 259 225 11 115 149 183 198 168 193 184 184 184 176 173 162 151 159 146 156 141 141 153 161 165 151 116 112 102 141 170 167 296 354 339 44 43 86 60 31 66 129 154
266 325 333 357 227 301 127 70 159 181 223 213 166 169 180 173 171 162 157 147 147 149 133 143 137 152 132 110 89 94 135 154 190 77 307 352 45 3 111 94 66 73 102 134 147
17 20 341 358 214 257 64 119 150 174 254 168 150 164 164 164 150 177 153 147 151 138 133 141 132 134 78 98 65 360 158 152 180 48 37 18 62 35 106 60 38 7 66 141 156
10 14 29 26 186 234 82 132 140 136 121 135 144 154 160 149 161 175 175 155 151 140 134 148 131 110 105 108 98 111 99 151 157 35 76 32 72 73 57 49 13 70 129 149 161
26 27 44 42 136 219 70 119 121 112 99 139 161 158 151 135 112 170 174 163 157 146 139 148 138 122 134 126 103 112 121 86 134 115 86 98 68 85 61 55 76 91 115 132 153
38 39 56 55 81 240 193 132 147 137 136 150 154 157 151 141 109 167 169 165 164 154 143 137 130 117 110 147 84 105 111 57 65 138 136 101 60 103 41 64 90 100 91 97 127
45 32 45 58 44 274 221 97 156 139 134 130 153 168 139 135 107 148 168 165 167 166 156 138 131 29 121 118 112 133 113 172 100 58 121 112 112 62 337 63 94 85 81 87 92
37 27 29 63 61 87 238 96 155 150 141 136 138 149 135 138 128 151 164 167 171 175 174 171 123 115 105 120 74 70 60 191 157 209 132 188 183 142 16 186 110 99 86 80 85
26 26 36 72 79 75 208 117 152 149 146 139 127 118 129 170 140 155 164 167 163 174 164 164 142 109 129 133 115 117 158 208 205 222 116 178 228 160 146 181 137 112 100 91 93
35 38 61 80 73 95 191 105 141 138 132 139 130 120 193 170 162 156 162 165 141 156 151 132 131 156 164 185 200 184 187 200 204 193 207 198 200 172 169 188 158 155 130 112 108
50 47 64 65 97 115 140 111 125 126 138 117 156 107 144 154 159 162 161 156 145 154 168 165 200 199 190 208 331 181 191 187 200 196 218 225 227 203 187 191 179 169 169 147 138
59 64 85 62 129 115 148 90 96 117 111 109 171 97 151 148 135 165 163 153 161 162 148 160 223 205 201 202 195 190 202 195 175 127 204 203 233 194 196 208 203 184 193 172 160
79 80 91 56 130 122 154 125 113 118 127 177 153 167 156 159 162 169 169 149 170 166 184 199 150 189 180 200 205 211 221 194 233 194 2 139 247 214 216 215 204 200 203 193 181
91 113 88 67 107 109 146 196 122 66 123 175 196 197 170 146 187 176 169 161 164 189 183 219 170 171 190 214 209 234 212 192 149 171 221 201 267 216 200 204 209 203 203 197 191
86 102 89 105 87 116 154 135 210 25 167 142 152 165 168 172 137 189 174 173 170 162 189 177 182 181 202 210 199 213 173 195 208 227 270 195 248 218 191 215 213 208 203 198 193
115 85 113 111 48 93 157 161 134 165 218 151 77 173 156 168 169 153 177 177 144 141 218 177 139 198 213 196 202 147 115 113 119 238 252 226 210 233 193 213 216 204 203 193 193
100 94 88 119 111 308 170 151 118 214 110 180 176 170 178 157 149 185 187 181 170 179 198 189 188 212 186 177 172 190 194 197 211 205 244 235 209 244 202 216 219 197 195 191 188
106 111 103 95 59 29 164 73 177 186 185 118 172 158 184 157 192 182 190 201 226 216 180 196 211 185 176 208 186 200 208 206 230 215 224 147 230 243 13 111 237 189 190 182 184
105 115 112 68 79 80 124 200 184 208 162 148 115 161 167 179 182 183 207 213 211 204 203 203 212 183 186 158 183 189 216 238 253 45 272 226 251 240 176 174 166 168 178 181 183
133 142 117 122 119 115 110 229 248 321 326 159 179 200 182 182 175 194 188 214 220 211 246 216 210 200 155 157 187 225 171 191 221 244 244 238 254 249 221 209 188 185 186 182 182
157 142 149 145 136 90 209 243 271 291 320 214 175 178 221 184 195 198 210 211 210 191 191 200 258 138 156 206 194 176 194 216 241 230 254 293 237 258 278 192 193 194 191 185 182
158 141 165 162 122 79 192 195 194 312 316 298 238 161 196 207 196 204 211 219 202 196 198 192 213 186 207 38 291 228 216 208 219 210 248 267 255 155 185 198 195 190 186 185 188
187 149 165 171 202 214 283 273 259 192 334 355 287 191 184 201 214 223 212 221 194 193 197 172 207 205 220 231 199 225 211 220 226 314 232 228 245 22 239 207 189 184 185 183 183
177 151 154 182 170 163 169 230 252 220 197 179 276 299 190 193 213 244 235 224 208 212 219 182 221 221 222 231 176 210 213 217 210 222 227 235 252 226 221 200 183 187 186 184 186
196 209 172 178 216 200 184 168 195 227 217 193 199 245 269 232 206 215 228 204 228 218 236 206 230 231 248 264 201 226 207 205 211 227 225 248 237 243 216 209 201 188 185 185 189
203 171 164 148 135 174 198 209 217 227 165 229 233 201 191 215 288 134 283 210 210 181 183 236 248 217 244 218 209 240 230 215 222 224 239 244 256 333 294 182 183 190 189 194 194
214 211 179 167 168 174 213 205 212 193 230 230 219 243 221 237 218 227 265 282 275 275 195 202 224 214 247 222 187 264 232 221 230 228 233 234 244 178 204 207 202 192 194 198 198